1483329600.87,37668,10.75,72920.5,-6.79,-38.55,-38.67,0,*55
1483329602.11,37669,10.75,72926.5,-6.79,-38.55,-38.73,0,*51
1483329603.37,37670,10.75,72930.3,-6.79,-38.55,-38.91,0,*55
1483329604.61,37671,10.75,72918.5,-6.79,-38.85,-39.09,0,*59
1483329605.87,37672,10.75,72926.8,-6.79,-38.85,-39.23,0,*52
1483329607.15,37673,10.75,72922.5,-6.79,-38.91,-39.23,0,*56
1483329608.41,37674,10.75,72920.0,-6.81,-38.91,-39.29,0,*5C
1483329609.67,37675,10.75,72920.3,-6.81,-38.91,-39.23,0,*57
1483329610.92,37676,10.75,72916.8,-6.81,-38.91,-39.03,0,*56
1483329612.18,37677,10.75,72916.5,-6.81,-39.03,-39.29,0,*55
1483329613.43,37678,10.75,72920.3,-6.81,-39.03,-39.41,0,*54
1483329614.67,37679,10.75,72924.8,-6.81,-39.23,-39.65,0,*51
1483329615.87,37680,10.75,72924.0,-6.81,-39.35,-39.47,0,*50
1483329617.1,37681,10.75,72920.3,-6.81,-39.29,-39.47,0,*5C
1483329618.33,37682,10.75,72928.3,-6.81,-38.97,-39.15,0,*5C
1483329619.54,37683,10.75,72922.8,-6.81,-38.97,-39.09,0,*50
1483329620.75,37684,10.75,72930.3,-6.81,-39.09,-38.97,0,*57
1483329621.95,37685,10.75,72932.3,-6.81,-38.97,-38.97,0,*50
1483329623.18,37686,10.75,72938.8,-6.85,-39.03,-38.97,0,*5B
1483329624.44,37687,10.75,72942.5,-6.85,-39.15,-39.03,0,*51
1483329625.67,37688,10.75,72938.0,-6.85,-39.03,-38.97,0,*55
1483329626.9,37689,10.75,72940.5,-6.85,-39.03,-38.97,0,*54
1483329628.15,37690,10.75,72934.0,-6.87,-38.97,-39.03,0,*5E
1483329629.41,37691,10.75,72940.5,-6.85,-39.15,-39.03,0,*56
1483329630.64,37692,10.75,72940.8,-6.85,-38.97,-39.03,0,*5E
1483329631.84,37693,10.75,72940.3,-6.85,-38.97,-38.97,0,*53
1483329633.04,37694,10.75,72940.5,-6.85,-38.97,-38.97,0,*54
1483329634.3,37695,10.75,72940.5,-6.85,-38.79,-38.79,0,*55
1483329635.55,37696,10.75,72942.3,-6.85,-38.67,-38.79,0,*59
1483329636.82,37697,10.69,72934.8,-6.91,-38.85,-38.91,0,*57
1483329638.07,37698,10.75,72924.5,-6.87,-38.97,-39.03,0,*56
1483329639.33,37699,10.75,72924.3,-6.87,-38.97,-39.15,0,*50
1483329640.56,37700,10.75,72920.0,-6.87,-38.97,-38.97,0,*5A
1483329641.84,37701,10.69,72910.3,-6.91,-39.03,-39.03,0,*5C
1483329643.13,37702,10.75,72916.0,-6.87,-38.79,-38.79,0,*58
1483329644.39,37703,10.75,72914.0,-6.91,-38.67,-38.85,0,*52
1483329645.63,37704,10.75,72916.0,-6.91,-38.55,-38.73,0,*5D
1483329646.88,37705,10.69,72910.3,-6.91,-38.67,-38.73,0,*5D
1483329648.12,37706,10.75,72910.5,-6.91,-38.85,-39.09,0,*5E
1483329649.36,37707,10.75,72912.0,-6.91,-38.73,-38.85,0,*53
1483329650.62,37708,10.75,72922.0,-6.91,-38.91,-39.09,0,*55
1483329651.89,37709,10.75,72920.8,-6.91,-38.91,-39.09,0,*54
1483329653.13,37710,10.75,72920.8,-6.91,-39.09,-39.09,0,*5C
1483329654.39,37711,10.75,72920.0,-6.95,-39.15,-39.29,0,*56
1483329655.61,37712,10.75,72924.3,-6.95,-39.29,-39.35,0,*57
1483329656.85,37713,10.75,72930.3,-6.93,-38.97,-39.09,0,*5B
1483329658.08,37714,10.75,72924.3,-6.93,-38.97,-39.09,0,*5C
1483329659.31,37715,10.75,72922.5,-6.95,-39.09,-39.15,0,*50
1483329660.55,37716,10.75,72920.0,-6.95,-39.09,-39.15,0,*53
1483329661.78,37717,10.75,72914.5,-6.93,-38.97,-39.09,0,*5F
1483329663.02,37718,10.75,72922.0,-6.95,-39.09,-39.15,0,*5D
1483329664.28,37719,10.69,72922.3,-6.93,-39.15,-39.09,0,*5A
1483329665.51,37720,10.75,72920.8,-6.95,-38.91,-38.97,0,*5D
1483329666.75,37721,10.75,72918.8,-6.95,-39.09,-39.15,0,*57
1483329667.96,37722,10.75,72918.5,-6.95,-39.09,-39.09,0,*59
1483329669.19,37723,10.75,72916.5,-6.99,-38.97,-39.03,0,*58
1483329670.42,37724,10.75,72934.3,-6.99,-39.03,-38.97,0,*5F
1483329671.67,37725,10.69,72930.3,-6.99,-39.03,-39.03,0,*52
1483329672.89,37726,10.75,72934.0,-6.99,-38.97,-39.03,0,*5D
1483329674.1,37727,10.75,72930.8,-6.99,-38.85,-38.97,0,*53
1483329675.38,37728,10.75,72916.3,-7.01,-38.67,-38.79,0,*50
1483329676.64,37729,10.75,72908.5,-7.01,-38.61,-38.67,0,*58
1483329677.85,37730,10.75,72900.5,-6.99,-38.61,-38.85,0,*5C
1483329679.08,37731,10.69,72898.3,-6.99,-38.79,-38.85,0,*54
1483329680.34,37732,10.75,72896.5,-7.01,-38.79,-38.97,0,*54
1483329681.62,37733,10.75,72898.3,-7.01,-38.79,-38.79,0,*55
1483329682.86,37734,10.75,72900.5,-7.01,-38.85,-38.97,0,*51
1483329684.09,37735,10.75,72904.3,-6.99,-38.79,-38.97,0,*53
1483329685.3,37736,10.75,72896.5,-6.99,-38.85,-38.97,0,*53
1483329686.53,37737,10.75,72904.5,-7.01,-38.85,-38.97,0,*52
1483329687.79,37738,10.75,72904.0,-7.01,-38.85,-39.03,0,*51
1483329689.02,37739,10.75,72900.3,-7.01,-38.85,-38.97,0,*5C
1483329690.25,37740,10.75,72904.8,-7.03,-38.73,-39.03,0,*55
1483329691.48,37741,10.75,72910.5,-7.03,-38.55,-38.67,0,*53
1483329692.74,37742,10.69,72904.8,-7.05,-38.43,-38.67,0,*51
1483329693.97,37743,10.69,72914.8,-7.03,-38.49,-38.73,0,*59
1483329695.22,37744,10.69,72920.0,-7.01,-38.23,-38.35,0,*52
1483329696.46,37745,10.69,72926.8,-6.99,-38.23,-38.35,0,*53
1483329697.69,37746,10.75,72928.0,-7.01,-38.35,-38.43,0,*56
1483329698.97,37747,10.75,72914.3,-7.01,-38.23,-38.23,0,*56
1483329700.2,37748,10.75,72920.3,-6.99,-38.23,-38.35,0,*5E
1483329701.46,37749,10.75,72920.8,-7.01,-38.35,-38.49,0,*53
1483329702.69,37750,10.75,72942.0,-6.99,-38.23,-38.43,0,*56
1483329703.95,37751,10.75,72940.0,-7.01,-37.99,-38.05,0,*5B
1483329705.22,37752,10.75,72926.8,-6.95,-37.81,-37.99,0,*57
1483329706.48,37753,10.75,72916.8,-6.95,-37.81,-37.93,0,*5C
1483329707.68,37754,10.75,72914.5,-6.99,-38.05,-38.17,0,*57
1483329708.92,37755,10.75,72908.8,-6.95,-37.69,-37.75,0,*54
1483329710.21,37756,10.75,72902.0,-6.93,-37.81,-37.93,0,*5F
1483329711.47,37757,10.75,72914.5,-6.95,-37.81,-38.11,0,*5D
1483329712.76,37758,10.75,72912.3,-6.93,-37.93,-37.99,0,*58
1483329714.04,37759,10.75,72912.0,-6.93,-38.11,-38.29,0,*58
1483329715.25,37760,10.75,72906.5,-6.95,-38.17,-38.43,0,*5E
1483329716.48,37761,10.75,72900.0,-6.93,-38.35,-38.61,0,*59
1483329717.72,37762,10.75,72896.5,-6.93,-38.43,-38.43,0,*5B
1483329718.98,37763,10.75,72900.3,-6.93,-38.29,-38.35,0,*57
1483329720.25,37764,10.75,72914.3,-6.93,-38.29,-38.43,0,*51
1483329721.47,37765,10.75,72914.0,-6.93,-38.35,-38.73,0,*5E
1483329722.7,37766,10.75,72926.5,-6.93,-38.43,-38.73,0,*5C
1483329723.93,37767,10.75,72924.5,-6.95,-38.11,-38.17,0,*5E
1483329725.19,37768,10.75,72922.0,-6.93,-37.57,-37.63,0,*56
1483329726.45,37769,10.75,72906.8,-6.93,-37.45,-37.63,0,*54
1483329727.69,37770,10.75,72898.5,-6.91,-37.33,-37.57,0,*58
1483329728.96,37771,10.75,72902.8,-6.87,-37.33,-37.63,0,*59
1483329730.21,37772,10.75,72906.3,-6.91,-37.69,-38.05,0,*5D
1483329731.47,37773,10.75,72902.0,-6.91,-37.93,-38.05,0,*59
1483329732.71,37774,10.75,72912.3,-6.87,-37.87,-38.17,0,*5F
1483329734.01,37775,10.75,72892.8,-6.87,-37.99,-38.23,0,*56
1483329735.24,37776,10.69,72898.8,-6.87,-37.87,-38.05,0,*5E
1483329736.45,37777,10.75,72908.8,-6.85,-37.87,-38.17,0,*5E
1483329737.69,37778,10.75,72916.3,-6.85,-38.05,-38.29,0,*59
1483329738.92,37779,10.75,72908.3,-6.85,-38.05,-38.49,0,*5E
1483329740.13,37780,10.75,72896.0,-6.85,-38.17,-38.61,0,*51
1483329741.36,37781,10.69,72880.5,-6.85,-38.17,-38.67,0,*56
1483329742.57,37782,10.75,72880.3,-6.85,-38.17,-38.43,0,*53
1483329743.78,37783,10.75,72888.0,-6.81,-38.35,-38.61,0,*56
1483329744.99,37784,10.75,72904.3,-6.85,-38.61,-38.85,0,*5E
1483329746.26,37785,10.75,72896.3,-6.85,-38.49,-38.79,0,*56
1483329747.49,37786,10.75,72892.5,-6.87,-38.43,-38.61,0,*54
1483329748.78,37787,10.75,72882.3,-6.87,-38.29,-38.67,0,*5F
1483329750.04,37788,10.75,72876.5,-6.87,-38.49,-38.97,0,*59
1483329751.31,37789,10.75,72896.8,-6.91,-38.85,-39.29,0,*5B
1483329752.57,37790,10.75,72896.0,-6.87,-38.85,-39.23,0,*5E
1483329753.83,37791,10.75,72892.0,-6.91,-38.67,-39.09,0,*5C
1483329755.1,37792,10.75,72902.0,-6.91,-38.85,-39.29,0,*51
1483329756.38,37793,10.75,72898.3,-6.87,-39.03,-39.23,0,*52
1483329757.66,37794,10.75,72900.0,-6.91,-39.03,-39.23,0,*52
1483329758.95,37795,10.75,72912.5,-6.91,-39.03,-39.29,0,*59
1483329760.23,37796,10.69,72910.0,-6.91,-39.03,-39.29,0,*5A
1483329761.51,37797,10.75,72908.0,-6.91,-39.23,-39.41,0,*57
1483329762.77,37798,10.75,72902.5,-6.91,-39.23,-39.47,0,*5E
1483329764.06,37799,10.75,72898.3,-6.91,-39.29,-39.59,0,*5A
1483329765.34,37800,10.75,72900.0,-6.91,-39.23,-39.29,0,*58
1483329766.6,37801,10.75,72908.3,-6.93,-39.09,-39.29,0,*53
1483329767.83,37802,10.75,72912.0,-6.95,-39.15,-39.35,0,*56
1483329769.09,37803,10.75,72904.3,-6.93,-39.15,-39.35,0,*51
1483329770.32,37804,10.75,72908.0,-6.95,-39.15,-39.35,0,*50
1483329771.57,37805,10.75,72914.3,-6.95,-39.29,-39.29,0,*53
1483329772.82,37806,10.75,72928.8,-6.95,-39.29,-39.29,0,*50
1483329774.03,37807,10.69,72924.3,-6.95,-38.97,-39.09,0,*57
1483329775.27,37808,10.75,72926.0,-6.95,-38.79,-39.09,0,*58
1483329776.49,37809,10.75,72912.8,-6.99,-38.97,-39.15,0,*58
1483329777.72,37810,10.75,72904.0,-6.95,-38.97,-39.15,0,*5C
1483329778.93,37811,10.75,72900.8,-6.95,-39.09,-39.35,0,*59
1483329780.15,37812,10.75,72926.5,-6.95,-38.97,-39.29,0,*51
1483329781.38,37813,10.75,72912.3,-6.95,-39.09,-39.29,0,*56
1483329782.62,37814,10.75,72918.0,-6.95,-38.91,-39.09,0,*53
1483329783.87,37815,10.75,72916.5,-6.95,-38.91,-39.15,0,*5F
1483329785.1,37816,10.69,72920.0,-6.99,-38.67,-38.97,0,*52
1483329786.36,37817,10.75,72908.3,-6.99,-38.79,-39.03,0,*50
1483329787.59,37818,10.75,72906.0,-6.99,-38.85,-39.23,0,*5E
1483329788.84,37819,10.75,72896.0,-7.01,-38.97,-39.15,0,*59
1483329790.07,37820,10.75,72888.0,-6.99,-38.97,-39.15,0,*53
1483329791.32,37821,10.75,72880.5,-6.99,-39.15,-39.23,0,*5C
1483329792.58,37822,10.75,72882.3,-6.99,-39.15,-39.41,0,*5B
1483329793.81,37823,10.69,72890.5,-6.99,-39.15,-39.35,0,*59
1483329795.04,37824,10.75,72892.8,-6.99,-39.23,-39.35,0,*5B
1483329796.32,37825,10.75,72890.8,-7.01,-39.15,-39.23,0,*58
1483329797.58,37826,10.75,72888.3,-7.01,-39.15,-39.35,0,*5C
1483329798.83,37827,10.75,72902.5,-7.01,-39.15,-39.35,0,*5D
1483329800.08,37828,10.69,72906.8,-7.01,-39.35,-39.53,0,*50
1483329801.37,37829,10.69,72900.3,-7.01,-39.15,-39.23,0,*54
1483329802.65,37830,10.75,72910.8,-7.01,-39.15,-39.41,0,*58
1483329803.92,37831,10.75,72910.3,-7.01,-39.23,-39.41,0,*5C
1483329805.2,37832,10.75,72910.3,-7.01,-39.23,-39.41,0,*5F
1483329806.43,37833,10.75,72910.8,-7.03,-39.41,-39.47,0,*5E
1483329807.65,37834,10.75,72918.8,-7.03,-39.41,-39.47,0,*59
1483329808.93,37835,10.75,72918.5,-7.05,-39.29,-39.41,0,*56
1483329810.2,37836,10.75,72918.5,-7.05,-39.29,-39.29,0,*5B
1483329811.46,37837,10.75,72922.3,-7.03,-39.29,-39.41,0,*52
1483329812.71,37838,10.69,72920.0,-7.03,-39.41,-39.41,0,*53
1483329813.94,37839,10.75,72932.8,-7.03,-39.09,-39.03,0,*58
1483329815.22,37840,10.75,72940.8,-7.05,-39.03,-39.03,0,*5A
1483329816.47,37841,10.75,72944.0,-7.03,-38.91,-39.03,0,*57
1483329817.7,37842,10.75,72940.5,-7.05,-38.55,-38.85,0,*55
1483329818.92,37843,10.75,72928.3,-7.03,-38.43,-38.55,0,*58
1483329820.18,37844,10.75,72926.3,-7.03,-38.49,-38.67,0,*54
1483329821.44,37845,10.75,72922.8,-7.03,-38.49,-38.67,0,*55
1483329822.64,37846,10.75,72916.0,-7.03,-38.55,-38.73,0,*5E
1483329823.87,37847,10.75,72914.5,-7.03,-38.67,-38.73,0,*5E
1483329825.12,37848,10.75,72900.8,-7.03,-38.67,-38.91,0,*5D
1483329826.36,37849,10.75,72906.5,-7.03,-38.43,-38.49,0,*5F
1483329827.6,37850,10.75,72910.0,-7.03,-38.49,-38.55,0,*50
1483329828.85,37851,10.75,72912.5,-7.05,-38.49,-38.73,0,*53
1483329830.11,37852,10.75,72902.3,-7.01,-38.49,-38.61,0,*57
1483329831.37,37853,10.75,72900.5,-7.01,-38.17,-38.23,0,*5B
1483329832.63,37854,10.75,72888.0,-7.01,-38.23,-38.35,0,*5C
1483329833.89,37855,10.75,72900.0,-6.99,-38.23,-38.49,0,*56
1483329835.17,37856,10.75,72896.5,-7.01,-38.49,-38.67,0,*55
1483329836.43,37857,10.75,72902.5,-7.01,-38.67,-38.85,0,*54
1483329837.66,37858,10.75,72900.8,-6.99,-38.79,-38.97,0,*57
1483329838.92,37859,10.75,72894.3,-7.01,-38.79,-38.97,0,*56
1483329840.17,37860,10.75,72892.0,-7.01,-38.35,-38.49,0,*57
1483329841.43,37861,10.75,72888.5,-7.01,-38.35,-38.49,0,*56
1483329842.63,37862,10.75,72888.5,-6.99,-38.35,-38.43,0,*5F
1483329843.84,37863,10.75,72886.5,-6.99,-38.35,-38.43,0,*5E
1483329845.1,37864,10.75,72884.3,-6.99,-38.49,-38.67,0,*54
1483329846.31,37865,10.75,72892.0,-6.99,-38.35,-38.43,0,*58
1483329847.54,37866,10.75,72886.8,-7.01,-38.35,-38.35,0,*5A
1483329848.75,37867,10.75,72906.3,-6.99,-38.35,-38.35,0,*5B
1483329849.96,37868,10.75,72912.0,-6.99,-38.35,-38.35,0,*54
1483329851.16,37869,10.75,72914.3,-6.95,-38.17,-38.17,0,*59
1483329852.36,37870,10.75,72902.5,-6.99,-38.05,-38.05,0,*5D
1483329853.66,37871,10.75,72902.5,-7.01,-37.81,-37.99,0,*55
1483329854.92,37872,10.75,72896.5,-6.95,-37.93,-37.81,0,*50
1483329856.17,37873,10.75,72904.0,-6.95,-37.93,-38.11,0,*57
1483329857.46,37874,10.75,72906.5,-6.93,-37.99,-37.99,0,*53
1483329858.75,37875,10.75,72902.8,-6.93,-37.93,-37.99,0,*58
1483329860.04,37876,10.75,72910.8,-6.93,-37.81,-37.81,0,*51
1483329861.28,37877,10.75,72906.5,-6.93,-37.75,-37.75,0,*50
1483329862.54,37878,10.75,72898.3,-6.93,-37.81,-37.75,0,*54
1483329863.83,37879,10.75,72890.3,-6.87,-37.63,-37.69,0,*51
1483329865.08,37880,10.75,72884.3,-6.91,-38.11,-38.05,0,*5F
1483329866.34,37881,10.75,72910.0,-6.91,-37.93,-38.05,0,*5B
1483329867.57,37882,10.75,72908.3,-6.87,-38.05,-38.17,0,*5C
1483329868.83,37883,10.75,72914.3,-6.87,-37.99,-38.05,0,*54
1483329870.1,37884,10.75,72918.0,-6.87,-38.05,-38.29,0,*57
1483329871.39,37885,10.75,72916.3,-6.87,-38.23,-38.49,0,*54
1483329872.65,37886,10.75,72928.0,-6.91,-38.23,-38.55,0,*5D
1483329873.94,37887,10.75,72946.0,-6.87,-38.23,-38.29,0,*50
1483329875.21,37888,10.75,72928.0,-6.87,-38.05,-38.23,0,*51
1483329876.5,37889,10.75,72922.3,-6.87,-38.23,-38.29,0,*5E
1483329877.73,37890,10.75,72920.5,-6.87,-38.43,-38.61,0,*5C
1483329879.02,37891,10.75,72918.8,-6.87,-38.49,-38.67,0,*51
1483329880.29,37892,10.75,72926.3,-6.87,-38.49,-38.61,0,*54
1483329881.53,37893,10.75,72926.8,-6.87,-38.61,-38.61,0,*5F
1483329882.82,37894,10.75,72924.0,-6.87,-38.49,-38.67,0,*54
1483329884.06,37895,10.75,72918.3,-6.87,-38.61,-38.61,0,*59
1483329885.35,37896,10.75,72930.5,-6.87,-38.23,-38.49,0,*56
1483329886.64,37897,10.75,72926.8,-6.87,-38.29,-38.49,0,*5D
1483329887.91,37898,10.75,72920.0,-6.87,-38.29,-38.61,0,*58
1483329889.14,37899,10.75,72926.5,-6.85,-38.29,-38.43,0,*5B
1483329890.4,37900,10.75,72922.3,-6.85,-38.29,-38.49,0,*50
1483329891.67,37901,10.75,72914.3,-6.85,-38.49,-38.67,0,*5B
1483329892.88,37902,10.75,72914.3,-6.85,-38.85,-38.85,0,*54
1483329894.14,37903,10.75,72926.5,-6.85,-39.03,-39.15,0,*52
1483329895.4,37904,10.75,72918.5,-6.85,-39.15,-39.23,0,*57
1483329896.66,37905,10.75,72916.8,-6.87,-38.79,-38.97,0,*51
1483329897.94,37906,10.75,72916.5,-6.87,-38.67,-38.79,0,*5D
1483329899.21,37907,10.75,72912.8,-6.87,-38.61,-38.79,0,*5A
1483329900.5,37908,10.75,72916.3,-6.87,-38.79,-38.79,0,*5C
1483329901.76,37909,10.75,72916.3,-6.87,-38.67,-38.85,0,*51
1483329903.05,37910,10.75,72922.5,-6.87,-38.79,-38.79,0,*55
1483329904.33,37911,10.75,72920.0,-6.87,-38.67,-38.79,0,*5B
1483329905.63,37912,10.75,72918.0,-6.87,-38.49,-38.79,0,*54
1483329906.89,37913,10.75,72928.0,-6.87,-38.61,-38.79,0,*5F
1483329908.18,37914,10.75,72938.0,-6.87,-38.79,-38.79,0,*51
1483329909.43,37915,10.75,72936.0,-6.91,-38.67,-38.73,0,*52
1483329910.7,37916,10.75,72936.8,-6.87,-38.49,-38.43,0,*59
1483329911.94,37917,10.75,72938.3,-6.87,-38.43,-38.43,0,*52
1483329913.21,37918,10.75,72930.8,-6.87,-38.29,-38.43,0,*51
1483329914.5,37919,10.75,72926.0,-6.87,-38.49,-38.67,0,*50
1483329915.74,37920,10.75,72928.3,-6.85,-38.49,-38.61,0,*5E
1483329916.97,37921,10.75,72916.8,-6.85,-38.61,-38.67,0,*53
1483329918.21,37922,10.75,72918.3,-6.85,-38.85,-38.67,0,*5A
1483329919.5,37923,10.75,72924.8,-6.87,-38.79,-38.79,0,*55
1483329920.77,37924,10.75,72922.0,-6.87,-38.79,-38.85,0,*51
1483329922.0,37925,10.75,72914.3,-6.87,-38.97,-38.97,0,*53
1483329923.26,37926,10.75,72916.8,-6.91,-38.91,-39.09,0,*57
1483329924.49,37927,10.75,72912.5,-6.87,-38.97,-38.97,0,*51
1483329925.78,37928,10.75,72930.3,-6.87,-38.49,-38.79,0,*5D
1483329927.05,37929,10.75,72924.8,-6.87,-38.17,-38.23,0,*58
1483329928.28,37930,10.75,72902.0,-6.87,-38.17,-38.17,0,*57
1483329929.56,37931,10.75,72904.3,-6.87,-37.87,-37.99,0,*59
1483329930.82,37932,10.75,72888.0,-6.87,-37.99,-38.43,0,*5D
1483329932.08,37933,10.69,72892.3,-6.87,-38.05,-38.23,0,*50
1483329933.34,37934,10.75,72898.8,-6.87,-37.99,-38.05,0,*59
1483329934.61,37935,10.75,72896.5,-6.87,-38.05,-38.23,0,*56
1483329935.81,37936,10.75,72900.3,-6.85,-38.05,-38.05,0,*53
1483329937.02,37937,10.75,72884.8,-6.81,-37.75,-37.75,0,*56
1483329938.28,37938,10.75,72876.8,-6.81,-37.93,-37.93,0,*59
1483329939.52,37939,10.75,72884.3,-6.85,-38.05,-37.99,0,*56
1483329940.77,37940,10.75,72894.8,-6.85,-37.69,-37.69,0,*52
1483329941.97,37941,10.75,72900.8,-6.81,-37.45,-37.45,0,*57
1483329943.21,37942,10.75,72896.3,-6.81,-37.63,-37.57,0,*53
1483329944.41,37943,10.75,72910.3,-6.81,-37.45,-37.45,0,*55
1483329945.65,37944,10.75,72916.0,-6.81,-37.45,-37.51,0,*57
1483329946.88,37945,10.75,72910.5,-6.81,-37.63,-37.75,0,*54
1483329948.15,37946,10.75,72910.3,-6.81,-37.93,-37.99,0,*5A
1483329949.38,37947,10.75,72918.0,-6.81,-37.93,-38.05,0,*51
1483329950.64,37948,10.75,72912.0,-6.81,-37.93,-38.11,0,*5B
1483329951.92,37949,10.75,72914.0,-6.79,-37.93,-37.93,0,*58
1483329953.18,37950,10.75,72926.5,-6.79,-37.93,-38.05,0,*50
1483329954.47,37951,10.75,72900.0,-6.79,-38.11,-38.29,0,*5A
1483329955.71,37952,10.75,72896.0,-6.79,-38.17,-38.17,0,*52
1483329956.94,37953,10.75,72916.0,-6.81,-38.05,-38.11,0,*51
1483329958.2,37954,10.75,72910.5,-6.79,-38.11,-38.17,0,*52
1483329959.46,37955,10.75,72888.8,-6.79,-38.17,-38.29,0,*58
1483329960.72,37956,10.75,72886.5,-6.81,-38.11,-38.29,0,*5A
1483329961.96,37957,10.75,72890.8,-6.81,-38.11,-38.35,0,*56
1483329963.22,37958,10.75,72892.0,-6.79,-38.29,-38.35,0,*55
1483329964.49,37959,10.75,72892.3,-6.81,-38.29,-38.49,0,*58
1483329965.78,37960,10.75,72878.5,-6.79,-38.29,-38.49,0,*55
1483329967.02,37961,10.75,72882.0,-6.81,-38.17,-38.29,0,*58
1483329968.29,37962,10.75,72878.0,-6.79,-38.29,-38.35,0,*5C
1483329969.56,37963,10.75,72886.0,-6.79,-38.49,-38.55,0,*5D
1483329970.79,37964,10.75,72902.8,-6.79,-38.55,-38.85,0,*5A
1483329972.06,37965,10.75,72908.5,-6.79,-38.55,-38.67,0,*57
1483329973.32,37966,10.75,72900.0,-6.79,-38.55,-38.67,0,*54
1483329974.54,37967,10.75,72896.0,-6.81,-38.67,-38.73,0,*56
1483329975.75,37968,10.75,72906.8,-6.81,-38.73,-38.85,0,*55
1483329977.01,37969,10.75,72914.3,-6.79,-38.55,-38.67,0,*5B
1483329978.26,37970,10.75,72912.0,-6.81,-38.49,-38.55,0,*58
1483329979.47,37971,10.75,72900.5,-6.81,-38.55,-38.55,0,*54
1483329980.71,37972,10.75,72908.0,-6.79,-38.55,-38.55,0,*50
1483329981.91,37973,10.75,72920.0,-6.81,-38.73,-38.73,0,*56
1483329983.12,37974,10.75,72904.0,-6.81,-38.73,-38.73,0,*51
1483329984.37,37975,10.75,72902.3,-6.81,-38.91,-38.91,0,*50
1483329985.61,37976,10.75,72910.0,-6.81,-38.91,-39.09,0,*53
1483329986.87,37977,10.75,72914.3,-6.81,-38.91,-39.03,0,*58
1483329988.1,37978,10.75,72912.8,-6.81,-39.09,-39.29,0,*5F
1483329989.34,37979,10.75,72918.0,-6.81,-39.09,-39.29,0,*5E
1483329990.58,37980,10.75,72916.0,-6.81,-39.03,-39.09,0,*50
1483329991.83,37981,10.75,72916.5,-6.85,-39.03,-39.23,0,*5D
1483329993.05,37982,10.75,72918.5,-6.81,-39.09,-39.09,0,*58
1483329994.26,37983,10.75,72930.8,-6.81,-39.09,-39.09,0,*59
1483329995.52,37984,10.75,72934.0,-6.85,-39.03,-39.23,0,*58
1483329996.75,37985,10.75,72932.0,-6.85,-39.03,-38.97,0,*57
1483329997.95,37986,10.75,72924.0,-6.85,-38.97,-38.97,0,*58
1483329999.18,37987,10.75,72934.0,-6.85,-38.79,-38.85,0,*5A
1483330000.42,37988,10.75,72938.8,-6.85,-38.61,-38.79,0,*5F
1483330001.67,37989,10.75,72940.8,-6.85,-38.67,-38.79,0,*58
1483330002.93,37990,10.75,72944.5,-6.85,-38.67,-38.67,0,*5F
1483330004.2,37991,10.75,72938.5,-6.87,-38.49,-38.43,0,*56
1483330005.46,37992,10.75,72938.8,-6.87,-38.29,-38.43,0,*53
1483330006.7,37993,10.75,72934.5,-6.85,-38.43,-38.49,0,*56
1483330007.91,37994,10.75,72924.5,-6.85,-38.43,-38.61,0,*5B
1483330009.14,37995,10.75,72926.3,-6.85,-38.29,-38.43,0,*56
1483330010.4,37996,10.75,72910.5,-6.85,-38.23,-38.49,0,*55
1483330011.63,37997,10.75,72882.3,-6.85,-38.43,-38.49,0,*52
1483330012.89,37998,10.75,72916.5,-6.85,-38.29,-38.67,0,*5D
1483330014.13,37999,10.75,72916.0,-6.85,-38.29,-38.61,0,*5A
1483330015.34,38000,10.75,72918.5,-6.81,-38.35,-38.55,0,*52
1483330016.57,38001,10.75,72920.8,-6.85,-38.29,-38.61,0,*5D
1483330017.83,38002,10.75,72926.3,-6.85,-38.23,-38.49,0,*5E
1483330019.06,38003,10.75,72910.8,-6.81,-38.11,-38.17,0,*51
1483330020.27,38004,10.75,72902.8,-6.85,-38.05,-38.17,0,*57
1483330021.5,38005,10.75,72900.8,-6.85,-38.05,-38.23,0,*51
1483330022.74,38006,10.75,72890.8,-6.85,-38.23,-38.43,0,*50
1483330024.0,38007,10.75,72906.5,-6.85,-38.23,-38.49,0,*5B
1483330025.23,38008,10.75,72910.0,-6.85,-38.17,-38.29,0,*55
1483330026.44,38009,10.75,72912.3,-6.81,-38.17,-38.35,0,*5D
1483330027.66,38010,10.75,72916.5,-6.81,-38.55,-38.61,0,*52
1483330028.87,38011,10.75,72910.0,-6.81,-38.35,-38.55,0,*52
1483330030.1,38012,10.75,72912.3,-6.85,-38.43,-38.67,0,*55
1483330031.31,38013,10.75,72926.8,-6.81,-38.55,-38.61,0,*51
1483330032.57,38014,10.75,72926.3,-6.85,-38.49,-38.67,0,*59
1483330033.78,38015,10.75,72934.5,-6.85,-38.61,-38.85,0,*5E
1483330034.99,38016,10.75,72932.5,-6.81,-38.35,-38.61,0,*52
1483330036.25,38017,10.75,72928.3,-6.85,-38.29,-38.67,0,*5C
1483330037.48,38018,10.75,72914.8,-6.85,-38.17,-38.67,0,*5E
1483330038.71,38019,10.75,72902.8,-6.85,-38.43,-38.67,0,*5E
1483330039.95,38020,10.75,72896.8,-6.81,-38.55,-38.79,0,*58
1483330041.18,38021,10.75,72896.8,-6.81,-38.85,-39.23,0,*5A
1483330042.41,38022,10.75,72898.3,-6.85,-38.97,-39.15,0,*5B
1483330043.64,38023,10.75,72896.3,-6.85,-38.97,-39.15,0,*5A
1483330044.92,38024,10.75,72904.3,-6.87,-39.03,-39.23,0,*56
1483330046.18,38025,10.75,72902.3,-6.87,-38.97,-39.15,0,*5E
1483330047.46,38026,10.75,72902.5,-6.87,-39.03,-39.15,0,*51
1483330048.72,38027,10.75,72908.5,-6.87,-38.97,-39.15,0,*5C
1483330049.98,38028,10.75,72912.5,-6.85,-39.15,-39.23,0,*5F
1483330051.24,38029,10.75,72912.0,-6.91,-39.09,-39.23,0,*56
1483330052.53,38030,10.75,72908.3,-6.91,-39.03,-39.15,0,*51
1483330053.81,38031,10.75,72910.0,-6.91,-39.03,-39.23,0,*55
1483330055.08,38032,10.75,72912.0,-6.91,-38.91,-39.09,0,*54
1483330056.34,38033,10.75,72918.3,-6.91,-38.91,-39.09,0,*55
1483330057.63,38034,10.75,72924.8,-6.91,-39.03,-39.03,0,*52
1483330058.89,38035,10.75,72936.0,-6.91,-39.03,-39.09,0,*59
1483330060.13,38036,10.75,72936.0,-6.91,-38.85,-38.85,0,*50
1483330061.39,38037,10.75,72938.8,-6.93,-38.55,-38.79,0,*5D
1483330062.65,38038,10.75,72936.5,-6.93,-38.61,-38.79,0,*55
1483330063.94,38039,10.75,72930.8,-6.93,-38.79,-38.91,0,*5B
1483330065.2,38040,10.75,72924.3,-6.93,-38.61,-38.91,0,*5C
1483330066.46,38041,10.75,72924.8,-6.95,-38.79,-38.91,0,*52
1483330067.72,38042,10.75,72926.3,-6.93,-38.79,-38.97,0,*51
1483330068.92,38043,10.75,72928.0,-6.95,-38.97,-39.09,0,*50
1483330070.13,38044,10.75,72920.3,-6.95,-38.73,-39.09,0,*5D
1483330071.42,38045,10.75,72924.5,-6.93,-38.79,-38.91,0,*50
1483330072.65,38046,10.75,72916.8,-6.95,-38.55,-38.91,0,*5B
1483330073.88,38047,10.75,72916.3,-6.95,-38.61,-38.91,0,*5D
1483330075.12,38048,10.75,72916.0,-6.95,-38.61,-38.91,0,*52
1483330076.35,38049,10.69,72908.0,-6.95,-38.61,-38.91,0,*53
1483330077.58,38050,10.75,72904.8,-6.99,-38.67,-38.97,0,*57
1483330078.81,38051,10.75,72896.0,-6.95,-38.73,-38.91,0,*59
1483330080.04,38052,10.75,72886.5,-6.95,-38.91,-38.97,0,*50
1483330081.27,38053,10.75,72882.8,-6.93,-38.97,-39.09,0,*57
1483330082.52,38054,10.75,72868.0,-6.95,-39.29,-39.29,0,*50
1483330083.78,38055,10.75,72874.8,-6.95,-39.15,-39.15,0,*51
1483330085.01,38056,10.75,72872.8,-6.95,-39.29,-39.35,0,*5F
1483330086.26,38057,10.75,72880.0,-6.95,-39.29,-39.29,0,*53
1483330087.51,38058,10.75,72884.8,-7.01,-39.23,-39.35,0,*57
1483330088.74,38059,10.75,72890.3,-6.99,-39.15,-39.35,0,*53
1483330090.01,38060,10.75,72896.0,-7.01,-39.03,-39.23,0,*59
1483330091.29,38061,10.75,72892.5,-7.01,-39.03,-39.15,0,*5D
1483330092.58,38062,10.75,72896.3,-7.01,-39.03,-39.15,0,*5E
1483330093.86,38063,10.75,72908.3,-7.01,-39.03,-39.15,0,*5F
1483330095.1,38064,10.75,72906.8,-7.01,-38.97,-39.03,0,*53
1483330096.32,38065,10.75,72900.3,-7.03,-39.09,-39.09,0,*5C
1483330097.55,38066,10.75,72902.5,-7.03,-39.09,-39.03,0,*55
1483330098.77,38067,10.75,72908.3,-7.03,-39.09,-39.09,0,*5E